Flag for Australia Weather past 2 weeks in Eucla, Western Australia, Australia

Now
69 °F

Haze.


Feels Like: 69 °F
Forecast: 61 / 86 °F
Wind: 10 mph from South

Location: Eucla Amo

Current Time: Oct 24, 2014 at 5:17:25 PM

Latest Report: Oct 24, 2014 at 3:45 PM


Visibility: 16 mi

Pressure: 30.03 "Hg

Humidity: 69%

Dew point: 58 °F

Location of EuclaLocation

Historic Weather in Eucla — Graph

°F

Eucla temperature yesterday

Maximum temperature yesterday: 86 °F (at 5:45 PM)
Minimum temperature yesterday: 57 °F (at 5:45 AM)
Average temperature yesterday: 68 °F

Past Weeks' High & Low Weather Summary

 TemperatureHumidityPressure
High101 °F (Oct 17, 12:45 PM)97% (Oct 22, 2:45 AM)30.40 "Hg (Oct 22, 2:45 AM)
Low44 °F (Oct 14, 5:45 AM)5% (Oct 17, 11:45 AM)29.82 "Hg (Oct 23, 5:45 PM)
Average63 °F66%30.09 "Hg
* Reported Oct 9 3:45 PM — Oct 24 3:45 PM, Eucla, Weather by CustomWeather, © 2014

Note: Actual official high and low records may vary slightly from our data, if they occured in-between our weather recording intervals... More about our weather records

Advertising

Eucla weather history for previous 24 hours

 ConditionsComfort  
Time TempWeatherWind HumidityBarometerVisibility
3:45 PM
Oct 24
69 °FHaze.10 mph69%30.03 "Hg16 mi
2:45 PM71 °FMild.12 mph62%30.03 "HgN/A
12:45 PM72 °FMild.12 mph59%30.03 "HgN/A
11:45 AM73 °FMild.13 mph55%30.04 "HgN/A
9:45 AM74 °FPassing clouds.13 mph44%30.05 "Hg25 mi
8:45 AM74 °FMild.10 mph48%30.04 "HgN/A
6:45 AM64 °FMild.6 mph79%30.01 "HgN/A
5:45 AM60 °FCool.5 mph88%29.99 "HgN/A
3:45 AM61 °FCool.7 mph90%29.94 "HgN/A
2:45 AM61 °FCool.8 mph88%29.94 "HgN/A
12:45 AM62 °FCool.10 mph87%29.93 "HgN/A
11:45 PM
Oct 23
64 °FMild.10 mph81%29.93 "HgN/A
9:45 PM74 °FMild.10 mph37%29.86 "HgN/A
8:45 PM78 °FPleasantly warm.10 mph32%29.86 "HgN/A
6:45 PM82 °FPleasantly warm.8 mph29%29.82 "HgN/A
5:45 PM86 °FPleasantly warm.8 mph26%29.82 "HgN/A
Weather by CustomWeather, © 2014

See weather overviewHow to use our weather pages